COSMOS 886

Satellite information

Favourite Embed

Satellite Type and Status

PAYLOADIN ORBIT

Key statistics

Satellite COSMOS 886 at a glance.

Uptime

17883

Days in orbit

Revolutions

≈ 12.6

Per day

Orbit

MEO

Medium Earth Orbit

Inclination

65.8

Latest

Satellite identification and parameters

Extended collection of information and parameters for COSMOS 886.

Object identification

Identified? True

Debris? False

Object name: COSMOS 886

International designator: 1976-126A

Object number (NORAD): 9634

Object ID (CCSDS): 9634

Country: COMMONWEALTH OF INDEPENDENT STATES (CIS)

Current information (Y/N): Y

RCS size: LARGE

Orbital parameters

Period: 114.597 minutes

Inclination: 65.8342 deg

SMA: 7815.227 km

Apoapsis: 2288.344 km

Periapsis: 585.84 km

RAAN: 96.4599 deg

Eccentricy: 0.10892225

Argument of periapsis: 333.26 deg

Mean anomaly: 21.5967 deg

Mean motion: 12.56580585 rev/day

Mean motion (dot): 0.00000041 rev/day2

B* drag term: 0.000062631058 1/REarth

Two-line elements (TLE)

Creation date: Dec. 12, 2025, 10:14 a.m.

Reference frame: TEME

Reference center: EARTH

Epoch: Dec. 12, 2025, 6:30 a.m. UTC

TLE line 0: 0 COSMOS 886

TLE line 1: 1 09634U 76126A 25346.27093584 .00000041 00000-0 62631-4 0 9999

TLE line 2: 2 09634 65.8342 96.4599 1089223 333.2600 21.5967 12.56580585256723

Live tracking on map

Real-time ground track for satellite COSMOS 886.

In-orbit conjunctions

A list of the most updated potential collisions computed for object COSMOS 886.

Target Orbit TCA Probability of collision Miss distance Type
NOAA 16 DEB SSO 2025-02-09 00:29:57 0.0001048304 909.0 (m) DEBRIS
THORAD AGENA D DEB SSO 2024-11-22 12:57:26 0.0002268691 220.0 (m) DEBRIS
FENGYUN 1C DEB SSO 2024-11-17 01:37:31 0.0002051743 418.0 (m) DEBRIS

Associated space launch

Second generation ASAT satellite

COSMOS 886 was lifted into orbit during the mission ‘Tsiklon-2 | IS-A 4’, on board a Tsiklon-2 space rocket.

The launch took place on Dec. 27, 1976, 12:05 p.m. from 90.

For more information about the launch, click the button.

Launch to space Tsiklon-2 | IS-A 4
Tsiklon-2 | IS-A 4

Agency: N/A

Status: Launch Successful

Launch date: Dec. 27, 1976, 12:05 p.m. UTC

Rocket: Tsiklon-2

Launch pad: 90

Location: Baikonur Cosmodrome, Republic of Kazakhstan

...

Latest news about this satellite

There are no fresh news available about this satellite. Check back as we update our databases every day.


Newsletter sign-up

Weekly statistics, charts and insights to help you stay on top of the space industry.